BAW461 LEMD-EGLL

Flight info

Callsign BAW461
Flight time N/A
Altitude 38000
Route SIE N858 DGO DCT BLV DCT MAPAX N867 NENEM DCT PEXOD DCT YURZI DCT ERIGA DCT ARTIV DCT REVTU UP87 ROXOG
Aircraft B772/H-SDE2E3FGHIJ5LORVWXY/LB1D1

Departure

Time 2026-05-05 16:11
Airport Adolfo Suárez Madrid–Barajas Airport (LEMD)

Arrival

Time N/A
Airport London Heathrow Airport (EGLL)
Time Latitude Longitude Altitude Speed Heading
2026-05-05 15:49 40.49035 -3.56362 1985 ft 0 kts 270°
2026-05-05 16:05 40.49036 -3.56372 1988 ft 5 kts 270°
2026-05-05 16:06 40.49023 -3.56441 1989 ft 9 kts 224°
2026-05-05 16:06 40.48960 -3.56454 1987 ft 9 kts 180°
2026-05-05 16:06 40.48896 -3.56455 1988 ft 9 kts 180°
2026-05-05 16:06 40.48863 -3.56513 1985 ft 9 kts 268°
2026-05-05 16:07 40.48863 -3.56599 1985 ft 9 kts 270°
2026-05-05 16:07 40.48863 -3.56686 1985 ft 10 kts 270°
2026-05-05 16:07 40.48862 -3.56800 1985 ft 14 kts 269°
2026-05-05 16:07 40.48861 -3.56930 1985 ft 14 kts 269°
2026-05-05 16:08 40.48861 -3.57060 1985 ft 14 kts 269°
2026-05-05 16:08 40.48860 -3.57176 1986 ft 10 kts 269°
2026-05-05 16:08 40.48902 -3.57235 1987 ft 10 kts 353°
2026-05-05 16:08 40.48972 -3.57237 1988 ft 10 kts 359°
2026-05-05 16:09 40.49034 -3.57276 1989 ft 10 kts 316°
2026-05-05 16:09 40.49082 -3.57338 1989 ft 10 kts 315°
2026-05-05 16:09 40.49133 -3.57404 1987 ft 10 kts 315°
2026-05-05 16:09 40.49189 -3.57457 1988 ft 10 kts 342°
2026-05-05 16:10 40.49261 -3.57463 1988 ft 13 kts 359°
2026-05-05 16:10 40.49487 -3.57465 1987 ft 60 kts 359°
2026-05-05 16:10 40.50157 -3.57470 1988 ft 131 kts 360°
2026-05-05 16:10 40.51258 -3.57466 2094 ft 176 kts 355°
2026-05-05 16:11 40.52499 -3.57482 2775 ft 180 kts 356°
2026-05-05 16:11 40.56010 -3.58208 4323 ft 188 kts 318°
2026-05-05 16:12 40.56866 -3.59575 4419 ft 203 kts 299°
2026-05-05 16:12 40.58901 -3.62328 4665 ft 226 kts 320°
2026-05-05 16:13 40.62789 -3.66514 5452 ft 245 kts 320°
2026-05-05 16:13 40.64313 -3.67530 5622 ft 254 kts 344°
2026-05-05 16:13 40.66072 -3.67656 5925 ft 262 kts
2026-05-05 16:14 40.69719 -3.67138 6617 ft 265 kts
2026-05-05 16:14 40.73415 -3.66577 7468 ft 274 kts
2026-05-05 16:15 40.77278 -3.66004 9174 ft 282 kts
2026-05-05 16:15 40.81301 -3.65418 10631 ft 307 kts
2026-05-05 16:16 40.85791 -3.64772 11952 ft 337 kts
2026-05-05 16:16 40.90472 -3.64090 14177 ft 342 kts
2026-05-05 16:17 40.95279 -3.63393 16013 ft 353 kts
2026-05-05 16:17 40.97736 -3.63037 16980 ft 358 kts
2026-05-05 16:18 41.02775 -3.62308 18677 ft 371 kts
2026-05-05 16:18 41.05323 -3.61938 19521 ft 375 kts
2026-05-05 16:18 41.10568 -3.61176 21215 ft 384 kts
2026-05-05 16:19 41.13240 -3.60788 22053 ft 389 kts
2026-05-05 16:19 41.15942 -3.60395 22858 ft 394 kts
2026-05-05 16:19 41.21455 -3.59574 24349 ft 403 kts
2026-05-05 16:20 41.27092 -3.58726 25706 ft 412 kts
2026-05-05 16:20 41.32817 -3.57865 27014 ft 421 kts
2026-05-05 16:21 41.38703 -3.56978 28251 ft 430 kts
2026-05-05 16:22 41.47753 -3.55610 29926 ft 442 kts 360°
2026-05-05 16:22 41.53932 -3.54675 30777 ft 451 kts
2026-05-05 16:23 41.60188 -3.53724 31553 ft 459 kts
2026-05-05 16:23 41.63372 -3.53240 31928 ft 463 kts
2026-05-05 16:23 41.69818 -3.52258 32628 ft 470 kts
2026-05-05 16:24 41.73078 -3.51760 32986 ft 473 kts
2026-05-05 16:24 41.76363 -3.51258 33287 ft 477 kts
2026-05-05 16:24 41.82951 -3.50250 33907 ft 482 kts
2026-05-05 16:25 41.86288 -3.49738 34264 ft 482 kts
2026-05-05 16:25 41.92952 -3.48712 35008 ft 482 kts
2026-05-05 16:25 41.96285 -3.48199 35382 ft 483 kts
2026-05-05 16:26 42.02949 -3.47174 36099 ft 483 kts
2026-05-05 16:26 42.09583 -3.46150 36785 ft 483 kts
2026-05-05 16:27 42.12927 -3.45634 37125 ft 484 kts
2026-05-05 16:27 42.16272 -3.45117 37488 ft 484 kts
2026-05-05 16:27 42.19612 -3.44601 37854 ft 483 kts
2026-05-05 16:27 42.22967 -3.44082 37978 ft 487 kts
2026-05-05 16:28 42.29720 -3.43036 37999 ft 488 kts
2026-05-05 16:28 42.36441 -3.41988 38014 ft 485 kts
2026-05-05 16:29 42.43100 -3.40950 38007 ft 485 kts
2026-05-05 16:29 42.49811 -3.39903 38001 ft 485 kts
2026-05-05 16:30 42.56522 -3.38853 38021 ft 486 kts
2026-05-05 16:30 42.63243 -3.37799 38018 ft 487 kts
2026-05-05 16:31 42.69928 -3.36749 38021 ft 487 kts
2026-05-05 16:31 42.76661 -3.35688 38014 ft 487 kts
2026-05-05 16:32 42.83395 -3.34625 38015 ft 487 kts
2026-05-05 16:32 42.90129 -3.33560 38018 ft 487 kts
2026-05-05 16:33 42.96859 -3.32493 38007 ft 487 kts
2026-05-05 16:33 43.03535 -3.31432 38019 ft 487 kts
2026-05-05 16:34 43.10262 -3.30361 38016 ft 486 kts
2026-05-05 16:34 43.16979 -3.29289 38016 ft 486 kts
2026-05-05 16:35 43.23693 -3.28215 38026 ft 485 kts
2026-05-05 16:35 43.30350 -3.27148 38019 ft 485 kts
2026-05-05 16:36 43.37048 -3.26071 38022 ft 485 kts
2026-05-05 16:36 43.43752 -3.24992 38018 ft 485 kts
2026-05-05 16:37 43.50451 -3.23912 38010 ft 485 kts
2026-05-05 16:37 43.57108 -3.22835 38001 ft 485 kts
2026-05-05 16:38 43.63812 -3.21748 37997 ft 485 kts
2026-05-05 16:38 43.70508 -3.20660 37993 ft 484 kts
2026-05-05 16:39 43.77203 -3.19570 37991 ft 484 kts
2026-05-05 16:39 43.83848 -3.18486 37982 ft 484 kts
2026-05-05 16:40 43.90536 -3.17392 37978 ft 484 kts
2026-05-05 16:40 43.97227 -3.16294 37975 ft 484 kts
2026-05-05 16:41 44.03904 -3.15198 37978 ft 484 kts
2026-05-05 16:41 44.10525 -3.13801 37963 ft 485 kts
2026-05-05 16:42 44.17162 -3.12134 37973 ft 485 kts
2026-05-05 16:42 44.23796 -3.10452 37973 ft 485 kts
2026-05-05 16:43 44.30438 -3.08800 37967 ft 485 kts
2026-05-05 16:43 44.37035 -3.07175 37964 ft 484 kts
2026-05-05 16:44 44.43674 -3.05542 37965 ft 485 kts
2026-05-05 16:44 44.50320 -3.03901 37958 ft 486 kts
2026-05-05 16:45 44.56982 -3.02252 37961 ft 486 kts
2026-05-05 16:45 44.63655 -3.00595 37958 ft 487 kts
2026-05-05 16:46 44.70292 -2.98944 37954 ft 488 kts
2026-05-05 16:46 44.76978 -2.97275 37954 ft 488 kts
2026-05-05 16:47 44.83667 -2.95603 37951 ft 488 kts
2026-05-05 16:47 44.90353 -2.93927 37951 ft 488 kts
2026-05-05 16:48 44.97030 -2.92250 37957 ft 487 kts
2026-05-05 16:48 45.03653 -2.90582 37949 ft 487 kts
2026-05-05 16:49 45.10330 -2.88898 37945 ft 487 kts
2026-05-05 16:49 45.17002 -2.87210 37954 ft 487 kts
2026-05-05 16:50 45.23678 -2.85516 37945 ft 487 kts
2026-05-05 16:50 45.30303 -2.83833 37942 ft 487 kts
2026-05-05 16:51 45.36970 -2.82135 37941 ft 486 kts
2026-05-05 16:51 45.43626 -2.80434 37931 ft 486 kts
2026-05-05 16:52 45.50271 -2.78731 37936 ft 485 kts
2026-05-05 16:52 45.56871 -2.77040 37937 ft 485 kts
2026-05-05 16:53 45.63516 -2.75330 37928 ft 485 kts
2026-05-05 16:53 45.70152 -2.73617 37923 ft 485 kts
2026-05-05 16:54 45.76749 -2.71912 37940 ft 486 kts 10°
2026-05-05 16:54 45.83403 -2.70189 37923 ft 486 kts
2026-05-05 16:55 45.90063 -2.68458 37921 ft 486 kts 10°
2026-05-05 16:55 45.96717 -2.66726 37921 ft 486 kts
2026-05-05 16:56 46.03354 -2.64993 37916 ft 485 kts
2026-05-05 16:56 46.09950 -2.63267 37916 ft 485 kts
2026-05-05 16:57 46.16582 -2.61528 37918 ft 485 kts
2026-05-05 16:57 46.23219 -2.59783 37916 ft 485 kts 10°
2026-05-05 16:58 46.29848 -2.58035 37916 ft 484 kts
2026-05-05 16:58 46.36434 -2.56295 37911 ft 484 kts 10°
2026-05-05 16:59 46.43063 -2.54539 37908 ft 484 kts 10°
2026-05-05 16:59 46.49692 -2.52779 37908 ft 484 kts 10°
2026-05-05 17:00 46.56317 -2.51016 37913 ft 484 kts 10°
2026-05-05 17:00 46.62891 -2.49261 37909 ft 484 kts 10°
2026-05-05 17:01 46.69506 -2.47492 37910 ft 483 kts 10°
2026-05-05 17:01 46.76113 -2.45719 37910 ft 483 kts 10°
2026-05-05 17:02 46.82718 -2.43943 37901 ft 483 kts 10°
2026-05-05 17:02 46.89343 -2.42158 37908 ft 485 kts 10°
2026-05-05 17:03 46.95937 -2.40376 37916 ft 486 kts 11°
2026-05-05 17:03 47.02577 -2.38578 37909 ft 486 kts 11°
2026-05-05 17:04 47.09226 -2.36772 37910 ft 486 kts 10°
2026-05-05 17:04 47.15870 -2.34963 37911 ft 485 kts 11°
2026-05-05 17:05 47.22468 -2.33162 37913 ft 485 kts 11°
2026-05-05 17:05 47.29101 -2.31347 37916 ft 485 kts 11°
2026-05-05 17:06 47.35746 -2.29524 37911 ft 486 kts 11°
2026-05-05 17:06 47.42382 -2.27699 37916 ft 485 kts 11°
2026-05-05 17:07 47.48960 -2.25885 37913 ft 484 kts 11°
2026-05-05 17:07 47.55572 -2.24057 37919 ft 483 kts 11°
2026-05-05 17:08 47.62178 -2.22226 37923 ft 482 kts 11°
2026-05-05 17:08 47.68775 -2.20392 37939 ft 483 kts 11°
2026-05-05 17:09 47.75394 -2.18549 37929 ft 484 kts 11°
2026-05-05 17:09 47.82016 -2.16699 37919 ft 483 kts 11°
2026-05-05 17:10 47.88574 -2.14862 37925 ft 482 kts 11°
2026-05-05 17:10 47.95169 -2.13010 37929 ft 482 kts 11°
2026-05-05 17:11 48.01746 -2.11159 37926 ft 483 kts 11°
2026-05-05 17:11 48.08359 -2.09292 37937 ft 485 kts 12°
2026-05-05 17:12 48.14954 -2.07426 37919 ft 485 kts 11°
2026-05-05 17:12 48.21578 -2.05546 37936 ft 484 kts 12°
2026-05-05 17:13 48.28214 -2.03658 37926 ft 486 kts 12°
2026-05-05 17:13 48.33784 -2.02070 37930 ft 486 kts 11°